Location: Austin
(30.3000°N, 97.7500°W)
Time: 04:09:05
(UTC-05:00)

Okean 3 - Pass Details

Date: 01 October 2024
Orbit: 558 x 578 km, 82.5° (Epoch: 06 October)

Event Time Altitude Azimuth Distance (km) Brightness Sun altitude
Rises 20:46:22 0° 348° (NNW) 2,795 7.2 -20.4°
Reaches altitude 10° 20:48:35 10° 344° (NNW) 1,893 6.3 -20.9°
Maximum altitude 20:52:40 56° 267° (W) 688 4.0 -21.7°
Drops below altitude 10° 20:56:44 10° 189° (S) 1,878 6.0 -22.6°
Sets 20:58:56 0° 184° (S) 2,770 6.9 -23.1°
